LB7PJ Weather Reports


time (UTC)temp
F
wind
direction
speed
knots
gust
knots
rain 1hr
in
rain 24hr
in
rain mn
in
humidity
%
barometer
mb
20260507090002 43 118 1.7 0.0 0.00 0.00 0.00 61 1009.9
20260507084502 43 118 1.7 0.0 0.00 0.00 0.00 61 1009.9
20260507083002 40 140 1.7 0.0 0.00 0.00 0.00 61 1009.9
20260507081502 40 140 1.7 0.0 0.00 0.00 0.00 61 1009.9
20260507080002 40 140 1.7 0.0 0.00 0.00 0.00 61 1009.9
20260507074502 36 148 0.9 0.0 0.00 0.00 0.00 61 1009.9
20260507073002 36 148 0.9 0.0 0.00 0.00 0.00 61 1009.9
20260507071501 36 148 0.9 0.0 0.00 0.00 0.00 61 1009.9
20260507070003 36 148 0.9 0.0 0.00 0.00 0.00 61 1009.9
20260507064501 36 148 0.9 0.0 0.00 0.00 0.00 61 1009.9
20260507063002 32 293 1.7 0.0 0.00 0.00 0.00 61 1009.9
20260507061502 32 293 1.7 0.0 0.00 0.00 0.00 61 1009.9
20260507060002 30 288 1.7 0.0 0.00 0.00 0.00 61 1009.9
20260507054501 30 288 1.7 0.0 0.00 0.00 0.00 61 1009.9
20260507053003 30 288 1.7 0.0 0.00 0.00 0.00 61 1009.9
20260507051501 30 288 1.7 0.0 0.00 0.00 0.00 61 1009.9
20260507050002 30 288 1.7 0.0 0.00 0.00 0.00 61 1009.9
20260507044501 29 293 2.6 0.0 0.00 0.00 0.00 61 1009.9
20260507043002 29 293 2.6 0.0 0.00 0.00 0.00 61 1009.9
20260507041502 29 293 2.6 0.0 0.00 0.00 0.00 61 1009.9
20260507040002 30 289 2.6 0.0 0.00 0.00 0.00 61 1009.9
20260507034502 30 289 2.6 0.0 0.00 0.00 0.00 61 1009.9
20260507033002 30 289 2.6 0.0 0.00 0.00 0.00 61 1009.9
20260507031501 31 289 2.6 0.0 0.00 0.00 0.00 61 1009.9
20260507030002 31 289 2.6 0.0 0.00 0.00 0.00 61 1009.9
20260507024502 31 289 2.6 0.0 0.00 0.00 0.00 61 1009.9
20260507023002 31 289 2.6 0.0 0.00 0.00 0.00 61 1009.9
20260507021502 31 289 2.6 0.0 0.00 0.00 0.00 61 1009.9
20260507020001 31 294 2.6 0.0 0.00 0.00 0.00 61 1009.9
20260507014502 31 294 2.6 0.0 0.00 0.00 0.00 61 1009.9
20260507013002 31 294 2.6 0.0 0.00 0.00 0.00 61 1009.9
20260507011502 31 294 2.6 0.0 0.00 0.00 0.00 61 1009.9
20260507010002 31 294 2.6 0.0 0.00 0.00 0.00 61 1009.9
20260507004502 32 300 2.6 0.0 0.00 0.00 0.00 61 1009.9
20260507003002 32 300 2.6 0.0 0.00 0.00 0.00 61 1009.9
20260507001502 33 296 2.6 0.0 0.00 0.00 0.00 61 1009.9
20260507000002 33 296 2.6 0.0 0.00 0.00 0.00 61 1009.9
20260506234502 33 296 2.6 0.0 0.00 0.00 0.00 61 1009.9
20260506233002 35 296 2.6 0.0 0.00 0.00 0.00 61 1009.9
20260506231502 35 296 2.6 0.0 0.00 0.00 0.00 61 1009.9
20260506230002 35 296 2.6 0.0 0.00 0.00 0.00 61 1009.9
20260506224502 35 296 2.6 0.0 0.00 0.00 0.00 61 1009.9
20260506223001 35 296 2.6 0.0 0.00 0.00 0.00 61 1009.9
20260506221502 37 314 3.5 0.0 0.00 0.00 0.00 61 1009.9
20260506220002 37 314 3.5 0.0 0.00 0.00 0.00 61 1009.9
20260506214502 40 298 3.5 0.0 0.00 0.00 0.00 61 1009.9
20260506213002 40 298 3.5 0.0 0.00 0.00 0.00 61 1009.9
20260506211501 40 298 3.5 0.0 0.00 0.00 0.00 61 1009.9
20260506210002 39 298 3.5 0.0 0.00 0.00 0.00 61 1009.9
20260506204501 39 298 3.5 0.0 0.00 0.00 0.00 61 1009.9
20260506203002 42 293 3.5 0.0 0.00 0.00 0.00 61 1009.9
20260506201501 42 293 3.5 0.0 0.00 0.00 0.00 61 1009.9
20260506200002 42 293 3.5 0.0 0.00 0.00 0.00 61 1009.9
20260506194501 46 300 3.5 0.0 0.00 0.00 0.00 61 1009.9
20260506193002 46 300 3.5 0.0 0.00 0.00 0.00 61 1009.9
20260506191501 46 300 3.5 0.0 0.00 0.00 0.00 61 1009.9
20260506190002 46 308 3.5 0.0 0.00 0.00 0.00 61 1009.9
20260506184502 46 308 3.5 0.0 0.00 0.00 0.00 61 1009.9
20260506183002 48 296 4.3 0.0 0.00 0.00 0.00 61 1009.9
20260506181502 48 296 4.3 0.0 0.00 0.00 0.00 61 1009.9
20260506180003 48 296 4.3 0.0 0.00 0.00 0.00 61 1009.9
20260506174501 50 276 3.5 0.0 0.00 0.00 0.00 61 1009.9
20260506173002 50 276 3.5 0.0 0.00 0.00 0.00 61 1009.9
20260506171502 50 276 3.5 0.0 0.00 0.00 0.00 61 1009.9
20260506170002 50 276 3.5 0.0 0.00 0.00 0.00 61 1009.9
20260506164502 50 276 3.5 0.0 0.00 0.00 0.00 61 1009.9
20260506163002 51 252 4.3 0.0 0.00 0.00 0.00 61 1009.9
20260506161501 51 252 4.3 0.0 0.00 0.00 0.00 61 1009.9
20260506160001 53 268 2.6 0.0 0.00 0.00 0.00 61 1009.9
20260506154501 53 268 2.6 0.0 0.00 0.00 0.00 61 1009.9
20260506153002 53 268 2.6 0.0 0.00 0.00 0.00 61 1009.9
20260506151502 52 268 2.6 0.0 0.00 0.00 0.00 61 1009.9
20260506150002 52 268 2.6 0.0 0.00 0.00 0.00 61 1009.9
20260506144502 51 248 2.6 0.0 0.00 0.00 0.00 61 1009.9
20260506143002 51 248 2.6 0.0 0.00 0.00 0.00 61 1009.9
20260506141502 51 248 2.6 0.0 0.00 0.00 0.00 61 1009.9
20260506140001 50 238 1.7 0.0 0.00 0.00 0.00 61 1009.9
20260506134502 50 238 1.7 0.0 0.00 0.00 0.00 61 1009.9
20260506133001 50 238 1.7 0.0 0.00 0.00 0.00 61 1009.9
20260506131502 50 238 1.7 0.0 0.00 0.00 0.00 61 1009.9
20260506130002 50 238 1.7 0.0 0.00 0.00 0.00 61 1009.9
20260506124502 49 242 1.7 0.0 0.00 0.00 0.00 61 1009.9
20260506123002 49 242 1.7 0.0 0.00 0.00 0.00 61 1009.9
20260506121502 49 221 0.9 0.0 0.00 0.00 0.00 61 1009.9
20260506120002 49 221 0.9 0.0 0.00 0.00 0.00 61 1009.9
20260506114502 49 221 0.9 0.0 0.00 0.00 0.00 61 1009.9
20260506113002 47 134 1.7 0.0 0.00 0.00 0.00 61 1009.9
20260506111501 47 134 1.7 0.0 0.00 0.00 0.00 61 1009.9
20260506110002 47 134 1.7 0.0 0.00 0.00 0.00 61 1009.9
20260506104501 47 134 1.7 0.0 0.00 0.00 0.00 61 1009.9
20260506103002 47 134 1.7 0.0 0.00 0.00 0.00 61 1009.9
20260506101501 45 116 2.6 0.0 0.00 0.00 0.00 61 1009.9
20260506100002 45 116 2.6 0.0 0.00 0.00 0.00 61 1009.9
20260506094501 43 114 2.6 0.0 0.00 0.00 0.00 61 1009.9
20260506093002 43 114 2.6 0.0 0.00 0.00 0.00 61 1009.9
20260506091501 43 114 2.6 0.0 0.00 0.00 0.00 61 1009.9